Location: Saint-Usage
(47.1052°N, 5.2587°E)
Time: 08:53:25
(UTC+01:00)

NOAA 19 - Pass Details

Date: 04 December 2021
Orbit: 841 x 860 km, 99.2° (Epoch: 26 January)

Event Time Altitude Azimuth Distance (km) Brightness Sun altitude
Rises 19:33:25 0° 174° (S) 3,382 8.3 -26.9°
Reaches altitude 10° 19:35:48 10° 178° (S) 2,453 7.6 -27.3°
Maximum altitude 19:41:10 60° 258° (WSW) 961 5.6 -28.2°
Drops below altitude 10° 19:46:36 10° 338° (NNW) 2,477 7.8 -29.1°
Sets 19:49:01 0° 342° (NNW) 3,420 8.5 -29.5°
